ES'HAIL 1 (39233 NORAD) Tracking and Keplerian Element Data

This shows tracking and keplerian element data for the satellite.

Feedback or suggestion? Click here.




ElementValue
Catalog39233
NameES'HAIL 1
Epoch Orbit2629
Epoch Day304.79871823
Epoch Year2020
RAAN10.0011
Inclination0.0558
Eccentricity0.0001908
Argument of Perigee189.0463
Mean Anonmoly153.5723
Mean Motion1.00269962
Decay Rate1.48E-06
L11 39233U 13044A 20304.79871823 .00000148 00000-0 00000+0 0 9998
L22 39233 0.0558 10.0011 0001908 189.0463 153.5723 1.00269962 26292

Live tracking and technical data element details for ES'HAIL 1 (NORAD 39233). ES'HAIL 1 can be tracked NOW for your location showing map with azimuth and elevation plus other details from your city location.

Track the satellite on the map from your city or location and see movement details for azimuth, elevation, latitude, longitude, range, height, and movement on the map or in text.







IsCatalogInMostPopularTable: catalog: 39233, numindb: 1306
Update: records affected: 1



GetName: 39233 ES'HAIL 1

Hit Count: updated at: Sat, 31 Oct 2020 18:36:55 GMT